Location: Skalnate Pleso
(49.1889°N, 20.2450°E)
Time: 01:49:16
(UTC+01:00)

Cosmos 2333 Rocket - Pass Details

Date: 19 November 2019
Orbit: 837 x 865 km, 70.8° (Epoch: 09 December)

Event Time Altitude Azimuth Distance (km) Brightness Sun altitude
Exits shadow 06:07:57 - 329° (NNW) 3,271 4.8 -7.7°
Reaches altitude 10° 06:09:57 10° 327° (NNW) 2,516 4.2 -7.4°
Maximum altitude 06:15:41 68° 246° (WSW) 933 2.3 -6.6°
Drops below altitude 10° 06:21:23 10° 165° (SSE) 2,497 5.2 -5.7°
Sets 06:23:50 0° 163° (SSE) 3,428 6.0 -5.3°
